This is the latest recevied weather packets stored in our database for station/object EA5LU-10. If no packets are shown the sender has not sent any weather packets the latest 10 day(s).
| Time | Temp. | Humidity | Pressure | Rain* | Wind** | Luminosity | Snow |
|---|---|---|---|---|---|---|---|
| 1777975819 | 24.44° C | 36% | 1003.5 hPa | - | - | - | - |
| 1777974918 | 24.44° C | 36% | 1003.5 hPa | - | - | - | - |
| 1777974017 | 24.44° C | 38% | 1003.3 hPa | - | - | - | - |
| 1777973116 | 23.89° C | 37% | 1003.3 hPa | - | - | - | - |
| 1777972215 | 23.89° C | 34% | 1003.2 hPa | - | - | - | - |
| 1777971314 | 23.33° C | 34% | 1003.3 hPa | - | - | - | - |
| 1777970413 | 23.33° C | 35% | 1003.3 hPa | - | - | - | - |
| 1777969512 | 22.22° C | 36% | 1003.4 hPa | - | - | - | - |
| 1777968612 | 22.22° C | 41% | 1003.4 hPa | - | - | - | - |
| 1777967711 | 21.67° C | 41% | 1003.5 hPa | - | - | - | - |
| 1777966810 | 21.11° C | 42% | 1003.5 hPa | - | - | - | - |
| 1777965909 | 20.56° C | 46% | 1003.5 hPa | - | - | - | - |
| 1777965008 | 19.44° C | 48% | 1003.5 hPa | - | - | - | - |
| 1777964108 | 18.89° C | 50% | 1003.5 hPa | - | - | - | - |
| 1777963207 | 17.78° C | 53% | 1003.5 hPa | - | - | - | - |
| 1777962306 | 17.22° C | 57% | 1003.4 hPa | - | - | - | - |
| 1777961405 | 16.11° C | 59% | 1003.4 hPa | - | - | - | - |
| 1777960504 | 16.11° C | 59% | 1003.3 hPa | - | - | - | - |
| 1777959603 | 16.11° C | 58% | 1003.2 hPa | - | - | - | - |
| 1777958703 | 16.11° C | 58% | 1003 hPa | - | - | - | - |
| 1777957802 | 16.67° C | 57% | 1002.9 hPa | - | - | - | - |
| 1777956901 | 17.22° C | 54% | 1002.7 hPa | - | - | - | - |
| 1777956000 | 17.22° C | 53% | 1002.6 hPa | - | - | - | - |
| 1777955099 | 16.67° C | 57% | 1002.8 hPa | - | - | - | - |
| 1777954199 | 16.67° C | 56% | 1002.8 hPa | - | - | - | - |
* Rain since midnight (hover to see other rain measurements)
** Current wind speed in m/s (hover to see current wind gust speed)